Location: *
(51.8167°N, 12.5000°E)
Time: 11:08:25
(UTC+00:00)

Cosmos 1980 - Pass Details

Date: 16 September 2019
Orbit: 841 x 845 km, 71.0° (Epoch: 17 October)

Event Time Altitude Azimuth Distance (km) Brightness Sun altitude
Rises 18:34:52 0° 330° (NNW) 3,411 7.7 -11.6°
Reaches altitude 10° 18:37:21 10° 334° (NNW) 2,472 6.8 -12.0°
Maximum altitude 18:42:59 62° 55° (NE) 945 3.8 -12.8°
Enters shadow 18:47:21 17° 133° (SE) 2,014 5.1 -13.4°
